TimeEDT,TemperatureF,Dew PointF,Humidity,Sea Level PressureIn,VisibilityMPH,Wind Direction,Wind SpeedMPH,Gust SpeedMPH,PrecipitationIn,Events,Conditions,WindDirDegrees,DateUTC
12:12 AM,36.1,30.0,78,30.06,10.0,SE,5.8,-,N/A,,Clear,130,2012-10-08 04:12:00
12:33 AM,36.1,29.5,77,30.05,10.0,SE,3.5,-,N/A,,Clear,130,2012-10-08 04:33:00
12:53 AM,34.7,30.0,83,30.05,10.0,ESE,5.8,-,N/A,,Clear,110,2012-10-08 04:53:00
1:12 AM,35.4,29.1,78,30.05,10.0,ESE,3.5,-,N/A,,Clear,120,2012-10-08 05:12:00
1:33 AM,35.2,29.7,80,30.05,10.0,SW,3.5,-,N/A,,Clear,230,2012-10-08 05:33:00
1:52 AM,36.0,28.8,75,30.05,10.0,ENE,4.6,-,N/A,,Scattered Clouds,70,2012-10-08 05:52:00
2:13 AM,37.9,28.4,69,30.05,10.0,ENE,4.6,-,N/A,,Mostly Cloudy,70,2012-10-08 06:13:00
2:33 AM,37.9,29.8,73,30.05,10.0,West,4.6,-,N/A,,Overcast,270,2012-10-08 06:33:00
2:52 AM,40.5,29.7,65,30.05,10.0,East,4.6,-,N/A,,Overcast,90,2012-10-08 06:52:00
3:13 AM,40.6,29.3,64,30.04,10.0,ESE,4.6,-,N/A,,Overcast,110,2012-10-08 07:13:00
3:33 AM,39.9,29.8,67,30.04,10.0,ESE,4.6,-,N/A,,Overcast,120,2012-10-08 07:33:00
3:52 AM,40.6,29.3,64,30.04,10.0,ESE,4.6,-,N/A,,Overcast,110,2012-10-08 07:52:00
4:13 AM,39.7,28.9,65,30.04,10.0,SSE,4.6,-,N/A,,Overcast,160,2012-10-08 08:13:00
4:33 AM,39.6,28.4,64,30.04,10.0,South,3.5,-,N/A,,Mostly Cloudy,170,2012-10-08 08:33:00
4:52 AM,40.1,28.2,63,30.04,10.0,South,4.6,-,N/A,,Mostly Cloudy,170,2012-10-08 08:52:00
5:13 AM,39.7,28.6,64,30.04,10.0,SW,3.5,-,N/A,,Overcast,230,2012-10-08 09:13:00
5:33 AM,39.4,28.4,65,30.04,10.0,South,4.6,-,N/A,,Overcast,180,2012-10-08 09:33:00
5:53 AM,40.1,28.4,63,30.04,10.0,South,4.6,-,N/A,,Overcast,180,2012-10-08 09:53:00
6:13 AM,39.6,28.2,64,30.05,10.0,SW,3.5,-,N/A,,Scattered Clouds,220,2012-10-08 10:13:00
6:33 AM,39.2,28.4,65,30.05,10.0,SW,3.5,-,N/A,,Clear,220,2012-10-08 10:33:00
6:53 AM,39.0,28.2,65,30.05,10.0,SW,4.6,-,N/A,,Clear,220,2012-10-08 10:53:00
7:13 AM,38.5,28.2,67,30.05,10.0,SSW,4.6,-,N/A,,Clear,200,2012-10-08 11:13:00
7:32 AM,37.8,28.0,68,30.05,10.0,SSW,4.6,-,N/A,,Clear,210,2012-10-08 11:32:00
7:53 AM,37.8,28.0,68,30.05,10.0,SSW,5.8,-,N/A,,Clear,210,2012-10-08 11:53:00
8:13 AM,37.6,28.2,69,30.05,10.0,SSW,3.5,-,N/A,,Clear,210,2012-10-08 12:13:00
8:32 AM,38.3,28.4,68,30.06,10.0,WSW,4.6,-,N/A,,Clear,240,2012-10-08 12:32:00
8:53 AM,39.2,28.4,65,30.06,10.0,WSW,4.6,-,N/A,,Clear,250,2012-10-08 12:53:00
9:13 AM,40.6,29.3,64,30.06,10.0,South,3.5,-,N/A,,Clear,180,2012-10-08 13:13:00
9:33 AM,41.9,29.1,61,30.06,10.0,South,5.8,-,N/A,,Clear,180,2012-10-08 13:33:00
9:53 AM,43.9,29.7,57,30.06,10.0,South,6.9,-,N/A,,Clear,170,2012-10-08 13:53:00
10:13 AM,46.0,29.8,53,30.06,10.0,SSE,6.9,-,N/A,,Clear,150,2012-10-08 14:13:00
10:33 AM,48.6,30.7,50,30.05,10.0,ESE,9.2,18.4,N/A,,Clear,120,2012-10-08 14:33:00
10:53 AM,50.4,31.6,49,30.05,10.0,South,8.1,17.3,N/A,,Clear,170,2012-10-08 14:53:00
11:13 AM,51.3,31.6,47,30.05,10.0,South,9.2,-,N/A,,Clear,170,2012-10-08 15:13:00
11:33 AM,52.7,31.8,45,30.04,10.0,South,10.4,17.3,N/A,,Clear,180,2012-10-08 15:33:00
11:53 AM,53.1,31.5,44,30.03,10.0,South,9.2,19.6,N/A,,Clear,190,2012-10-08 15:53:00
12:13 PM,54.0,31.3,42,30.03,10.0,South,11.5,17.3,N/A,,Clear,190,2012-10-08 16:13:00
12:33 PM,55.4,31.8,41,30.03,10.0,South,11.5,-,N/A,,Clear,190,2012-10-08 16:33:00
12:53 PM,55.6,29.8,37,30.03,10.0,South,9.2,17.3,N/A,,Clear,190,2012-10-08 16:53:00
1:12 PM,56.3,30.2,37,30.02,10.0,SW,12.7,20.7,N/A,,Clear,230,2012-10-08 17:12:00
1:53 PM,56.3,30.6,38,30.01,10.0,SSW,10.4,19.6,N/A,,Mostly Cloudy,200,2012-10-08 17:53:00
2:13 PM,55.8,30.0,37,30.00,10.0,SSW,9.2,19.6,N/A,,Overcast,200,2012-10-08 18:13:00
2:33 PM,56.5,31.6,39,29.99,10.0,South,9.2,17.3,N/A,,Overcast,170,2012-10-08 18:33:00
2:53 PM,57.9,31.3,36,29.98,10.0,South,12.7,20.7,N/A,,Mostly Cloudy,170,2012-10-08 18:53:00
3:13 PM,57.4,31.1,37,29.98,10.0,South,9.2,17.3,N/A,,Mostly Cloudy,170,2012-10-08 19:13:00
3:33 PM,57.4,31.1,37,29.97,10.0,SSE,10.4,20.7,N/A,,Mostly Cloudy,160,2012-10-08 19:33:00
3:53 PM,57.7,31.1,36,29.97,10.0,South,9.2,19.6,N/A,,Mostly Cloudy,190,2012-10-08 19:53:00
4:13 PM,57.6,30.6,36,29.96,10.0,South,10.4,20.7,N/A,,Scattered Clouds,180,2012-10-08 20:13:00
4:33 PM,57.7,29.1,34,29.96,10.0,SSW,11.5,25.3,N/A,,Scattered Clouds,200,2012-10-08 20:33:00
4:53 PM,57.6,30.6,36,29.95,10.0,South,9.2,17.3,N/A,,Mostly Cloudy,180,2012-10-08 20:53:00
5:13 PM,57.4,29.7,35,29.95,10.0,South,9.2,17.3,N/A,,Scattered Clouds,180,2012-10-08 21:13:00
5:33 PM,56.8,32.0,39,29.94,10.0,South,8.1,16.1,N/A,,Mostly Cloudy,170,2012-10-08 21:33:00
5:54 PM,55.9,31.3,39,29.94,10.0,SSE,10.4,18.4,N/A,,Scattered Clouds,160,2012-10-08 21:54:00
6:13 PM,55.4,31.6,40,29.94,10.0,SSE,10.4,18.4,N/A,,Scattered Clouds,160,2012-10-08 22:13:00
6:33 PM,54.7,31.3,41,29.94,10.0,SSE,12.7,20.7,N/A,,Scattered Clouds,150,2012-10-08 22:33:00
6:53 PM,54.0,31.6,43,29.95,10.0,SSE,12.7,19.6,N/A,,Mostly Cloudy,150,2012-10-08 22:53:00
7:13 PM,53.8,32.0,44,29.95,10.0,SSE,11.5,20.7,N/A,,Mostly Cloudy,160,2012-10-08 23:13:00
7:33 PM,53.6,31.8,44,29.95,10.0,SSE,12.7,18.4,N/A,,Overcast,160,2012-10-08 23:33:00
7:53 PM,53.1,32.0,45,29.95,10.0,SSE,13.8,20.7,N/A,,Overcast,160,2012-10-08 23:53:00
8:13 PM,53.1,32.0,45,29.95,10.0,SSE,12.7,-,N/A,,Overcast,160,2012-10-09 00:13:00
8:33 PM,52.9,31.8,45,29.95,10.0,SSE,13.8,20.7,N/A,,Overcast,160,2012-10-09 00:33:00
9:32 PM,52.7,30.9,43,29.94,10.0,SSE,12.7,21.9,N/A,,Overcast,160,2012-10-09 01:32:00
9:53 PM,52.7,30.6,43,29.94,10.0,SSE,15.0,-,N/A,,Overcast,160,2012-10-09 01:53:00
10:13 PM,52.7,29.7,41,29.93,10.0,South,15.0,20.7,N/A,,Overcast,170,2012-10-09 02:13:00
10:33 PM,52.7,28.9,40,29.94,10.0,SSE,12.7,19.6,N/A,,Overcast,160,2012-10-09 02:33:00
10:53 PM,52.7,28.6,40,29.93,10.0,SSE,15.0,21.9,N/A,,Overcast,160,2012-10-09 02:53:00
11:13 PM,52.7,28.4,39,29.94,10.0,South,12.7,23.0,N/A,,Overcast,170,2012-10-09 03:13:00
11:53 PM,51.8,28.8,41,29.94,10.0,SSE,13.8,18.4,N/A,,Overcast,160,2012-10-09 03:53:00